Regional Weather Roundup
Issued by NWS Spokane, WA

Home | Current Version | Previous Version | Text Only | Print | Product List | Glossary On
Versions: 1 2 3 4 5 6 7 8 9 10 11 12 13 14 15 16 17 18 19 20 21 22 23 24 25 26 27 28 29 30 31 32 33 34 35 36 37 38 39 40 41 42 43 44 45 46 47 48 49 50
000
NZUS01 KOTX 232125
RWROTX

Eastern Washington/Northern Idaho Roundup
National Weather Service, Spokane WA
200 PM PDT MON OCT 23 2017

Note: "fair" indicated few or no clouds below 12,000 feet with no
significant weather and/or obstructions to visibility.

...Northeast Washington and Northern Idaho Panhandle...

CITY           SKY/WX    TMP DP  RH WIND       PRES   REMARKS
Spokane Intl   MOSUNNY   54  38  54 SW8       30.67S
Spokane Downto MOSUNNY   57  40  52 S5        30.68S
Coeur d Alene  PTSUNNY   54  39  57 CALM      30.68F
Deer Park      SUNNY     52  39  61 SW6       30.68F
Sandpoint      SUNNY     54  36  50 SW6       30.68S

...Southeast Washington and southern Idaho Panhandle...

CITY           SKY/WX    TMP DP  RH WIND       PRES   REMARKS
Walla Walla    SUNNY     63  42  46 W9        30.65F
Pullman/Moscow MOSUNNY   55  38  52 SE5       30.68F
Lewiston       SUNNY     62  43  49 NW5       30.66F
Lowell           N/A     57  50  77 N3        30.68R
Grangeville    FAIR      54  36  50 W6        30.67S

...Columbia Basin...

CITY           SKY/WX    TMP DP  RH WIND       PRES   REMARKS
Ephrata        SUNNY     59  33  37 CALM      30.66S
Moses Lake     SUNNY     60  37  42 SW5       30.67F
Pasco          SUNNY     63  45  51 CALM      30.67S
Richland       CLEAR     65  43  43 NW3       30.66F
Hermiston      SUNNY     63  45  51 NW5       30.65S
Pendleton      SUNNY     62  42  47 NW6       30.65S

...East Slopes Cascades...

CITY           SKY/WX    TMP DP  RH WIND       PRES   REMARKS
The Dalles     SUNNY     62  47  57 VRB3      30.65F
Yakima         SUNNY     62  39  42 E3        30.66F
Ellensburg     SUNNY     62  39  42 VRB5      30.65F
Stampede Pass  MOSUNNY   50  40  68 VRB3      30.65R
Wenatchee      SUNNY     58  38  47 E6        30.65F
Omak           CLOUDY    54  38  54 SW5       30.67S
Chelan           N/A     57  37  47 MISG        N/A
Sunnyside      CLEAR     60  38  44 CALM      30.66F

...Southern British Columbia...

CITY           SKY/WX    TMP DP  RH WIND       PRES   REMARKS
Penticton      PTSUNNY   55  34  44 S10       30.63S
Castlegar      PTSUNNY   55  36  47 S12       30.64F
Cranbrook      MOSUNNY   54  28  37 S3        30.58F
Osoyoos          N/A     52  37  58 S3          N/A
Creston          N/A     55  36  47 SE6         N/A

...Western Montana...

CITY           SKY/WX    TMP DP  RH WIND       PRES   REMARKS
Kalispell      CLEAR     53  32  44 S7        30.62S
Libby            N/A     55  30  38 SW6       30.62F
Missoula       CLOUDY    53  32  44 N8G22     30.66S

...Neighboring Cities...

CITY           SKY/WX    TMP DP  RH WIND       PRES   REMARKS
Seattle        PTSUNNY   64  43  46 E5        30.63F
Portland       SUNNY     60  50  69 W5        30.61F
Boise          MOSUNNY   58  40  51 NW9       30.65F
Great Falls    SUNNY     56  16  20 W15G25    30.52S
Calgary        MOSUNNY   55  14  19 NW13G22   30.41F



USA.gov is the U.S. government's official web portal to all federal, state and local government web resources and services.